Location: Estes Par
(40.3770°N, 10.0000°W)
Time: 19:13:30
(UTC-06:00)

ISS - Visible Passes

Search period start: 21 October 2017 00:00
Search period end: 31 October 2017 00:00
Orbit: 401 x 408 km, 51.6° (Epoch: 22 October)

Date Brightness Start Highest point End Pass type
(mag) Time Alt. Az. Time Alt. Az. Time Alt. Az.
28 Oct -1.9 00:34:44 10° SSW 00:37:40 32° SE 00:40:36 10° ENE visible
28 Oct -0.9 23:43:15 10° S 23:45:24 17° SE 23:47:34 10° E visible
30 Oct -3.8 00:25:54 10° SW 00:29:07 84° SSE 00:32:23 10° NE visible
30 Oct -2.7 23:35:03 22° SSW 23:36:44 40° SE 23:39:48 10° ENE visible
